| time (UTC) | temp F | wind direction | speed knots | gust knots | rain 1hr in | rain 24hr in | rain mn in | humidity % | barometer mb |
| 20260503050030 | 75 | 161 | 5.2 | 11.3 | 0.00 | 0.00 | 0.00 | 72 | 1019.2 |
| 20260503044556 | 76 | 148 | 4.3 | 7.8 | 0.00 | 0.00 | 0.00 | 70 | 1019.3 |
| 20260503043019 | 76 | 95 | 3.5 | 10.4 | 0.00 | 0.00 | 0.00 | 72 | 1019.3 |
| 20260503041544 | 76 | 176 | 3.5 | 7.8 | 0.00 | 0.00 | 0.00 | 72 | 1019.3 |
| 20260503040035 | 76 | 174 | 2.6 | 7.8 | 0.00 | 0.00 | 0.00 | 73 | 1019.4 |
| 20260503034501 | 76 | 142 | 3.5 | 8.7 | 0.00 | 0.00 | 0.00 | 73 | 1019.4 |
| 20260503033044 | 76 | 174 | 4.3 | 8.7 | 0.00 | 0.00 | 0.00 | 73 | 1019.4 |
| 20260503031556 | 77 | 114 | 2.6 | 6.1 | 0.00 | 0.00 | 0.00 | 71 | 1019.5 |
| 20260503030043 | 76 | 148 | 2.6 | 8.7 | 0.00 | 0.00 | 0.00 | 74 | 1019.6 |
| 20260503024529 | 76 | 119 | 2.6 | 7.8 | 0.00 | 0.00 | 0.00 | 73 | 1020.1 |
| 20260503023059 | 76 | 175 | 4.3 | 9.6 | 0.00 | 0.00 | 0.00 | 73 | 1020.2 |
| 20260503021525 | 76 | 174 | 6.1 | 11.3 | 0.00 | 0.00 | 0.00 | 71 | 1020.6 |
| 20260503020045 | 76 | 167 | 3.5 | 8.7 | 0.00 | 0.00 | 0.00 | 73 | 1020.8 |
| 20260503014520 | 76 | 174 | 4.3 | 9.6 | 0.00 | 0.00 | 0.00 | 72 | 1021.0 |
| 20260503013050 | 76 | 155 | 4.3 | 11.3 | 0.00 | 0.00 | 0.00 | 73 | 1021.2 |
| 20260503011540 | 76 | 176 | 5.2 | 12.2 | 0.00 | 0.00 | 0.00 | 71 | 1021.4 |
| 20260503010122 | 76 | 174 | 4.3 | 8.7 | 0.00 | 0.00 | 0.00 | 71 | 1021.5 |
| 20260503004532 | 75 | 176 | 3.5 | 7.8 | 0.00 | 0.00 | 0.00 | 73 | 1021.8 |
| 20260503003054 | 76 | 167 | 1.7 | 7.8 | 0.00 | 0.00 | 0.00 | 73 | 1021.9 |
| 20260503001521 | 76 | 108 | 3.5 | 7.8 | 0.00 | 0.00 | 0.00 | 71 | 1021.8 |
| 20260503000044 | 75 | 175 | 2.6 | 8.7 | 0.00 | 0.00 | 0.00 | 74 | 1022.0 |
| 20260502234517 | 74 | 175 | 3.5 | 8.7 | 0.00 | 0.00 | 0.00 | 75 | 1022.0 |
| 20260502233045 | 74 | 259 | 0.9 | 5.2 | 0.00 | 0.00 | 0.00 | 75 | 1022.1 |
| 20260502231555 | 73 | 190 | 1.7 | 6.1 | 0.00 | 0.00 | 0.00 | 76 | 1022.0 |
| 20260502230038 | 72 | 175 | 3.5 | 6.1 | 0.00 | 0.00 | 0.00 | 78 | 1022.0 |
| 20260502224504 | 72 | 176 | 3.5 | 7.8 | 0.00 | 0.00 | 0.00 | 79 | 1021.9 |
| 20260502223045 | 70 | 184 | 2.6 | 6.1 | 0.00 | 0.00 | 0.00 | 80 | 1021.9 |
| 20260502221603 | 69 | 191 | 3.5 | 7.0 | 0.00 | 0.00 | 0.00 | 80 | 1021.7 |
| 20260502220051 | 68 | 202 | 3.5 | 7.8 | 0.00 | 0.00 | 0.00 | 82 | 1021.5 |
| 20260502214551 | 67 | 183 | 3.5 | 7.0 | 0.00 | 0.00 | 0.00 | 84 | 1021.5 |
| 20260502213028 | 65 | 174 | 2.6 | 7.0 | 0.00 | 0.00 | 0.00 | 85 | 1021.3 |
| 20260502211544 | 65 | 176 | 1.7 | 6.1 | 0.00 | 0.00 | 0.00 | 85 | 1021.2 |
| 20260502210048 | 65 | 178 | 2.6 | 7.0 | 0.00 | 0.02 | 0.00 | 86 | 1021.2 |
| 20260502204509 | 64 | 181 | 2.6 | 7.0 | 0.00 | 0.02 | 0.00 | 86 | 1021.1 |
| 20260502203055 | 64 | 183 | 3.5 | 6.1 | 0.00 | 0.02 | 0.00 | 87 | 1021.0 |
| 20260502201512 | 64 | 180 | 3.5 | 6.1 | 0.00 | 0.02 | 0.00 | 87 | 1020.9 |
| 20260502200043 | 64 | 175 | 3.5 | 6.1 | 0.00 | 0.02 | 0.00 | 88 | 1020.7 |
| 20260502194514 | 64 | 197 | 3.5 | 8.7 | 0.00 | 0.02 | 0.00 | 88 | 1020.5 |
| 20260502193044 | 64 | 226 | 2.6 | 6.1 | 0.00 | 0.02 | 0.00 | 88 | 1020.4 |
| 20260502191506 | 64 | 189 | 2.6 | 7.0 | 0.00 | 0.02 | 0.00 | 87 | 1020.3 |
| 20260502190036 | 65 | 196 | 3.5 | 6.1 | 0.00 | 0.02 | 0.00 | 88 | 1020.3 |
| 20260502184556 | 65 | 207 | 1.7 | 6.1 | 0.00 | 0.02 | 0.00 | 88 | 1020.4 |
| 20260502183028 | 65 | 179 | 2.6 | 6.1 | 0.00 | 0.02 | 0.00 | 88 | 1020.4 |
| 20260502181552 | 65 | 204 | 3.5 | 6.1 | 0.00 | 0.02 | 0.00 | 89 | 1020.4 |
| 20260502163038 | 67 | 202 | 0.9 | 3.5 | 0.00 | 0.02 | 0.00 | 83 | 1020.7 |
| 20260502161554 | 69 | 190 | 0.9 | 4.3 | 0.00 | 0.02 | 0.00 | 80 | 1020.7 |
| 20260502151517 | 72 | 167 | 4.3 | 8.7 | 0.00 | 0.02 | 0.00 | 72 | 1021.0 |
| 20260502123100 | 72 | 112 | 3.5 | 9.6 | 0.00 | 0.06 | 0.02 | 75 | 1021.9 |
| 20260502123009 | 72 | 122 | 2.6 | 9.6 | 0.00 | 0.06 | 0.02 | 75 | 1022.0 |
| 20260502121524 | 72 | 96 | 5.2 | 10.4 | 0.00 | 0.06 | 0.02 | 75 | 1022.1 |
| 20260502120106 | 72 | 91 | 3.5 | 9.6 | 0.00 | 0.10 | 0.02 | 74 | 1022.0 |
| 20260502114617 | 73 | 125 | 5.2 | 12.2 | 0.00 | 0.10 | 0.02 | 75 | 1022.0 |
| 20260502113043 | 73 | 122 | 3.5 | 10.4 | 0.00 | 0.10 | 0.02 | 76 | 1022.0 |
| 20260502111510 | 73 | 117 | 5.2 | 11.3 | 0.00 | 0.10 | 0.02 | 75 | 1021.9 |
| 20260502110036 | 73 | 99 | 6.1 | 13.9 | 0.00 | 0.15 | 0.02 | 76 | 1022.0 |
| 20260502104558 | 73 | 102 | 4.3 | 9.6 | 0.00 | 0.15 | 0.02 | 76 | 1021.9 |
| 20260502103037 | 73 | 114 | 3.5 | 9.6 | 0.00 | 0.15 | 0.02 | 74 | 1022.1 |
| 20260502101522 | 73 | 122 | 4.3 | 10.4 | 0.00 | 0.15 | 0.02 | 75 | 1022.0 |
| 20260502100108 | 73 | 171 | 5.2 | 10.4 | 0.00 | 0.18 | 0.02 | 76 | 1021.9 |
| 20260502091513 | 73 | 115 | 4.3 | 12.2 | 0.00 | 0.18 | 0.02 | 77 | 1021.1 |
| 20260502071519 | 73 | 84 | 4.3 | 10.4 | 0.00 | 0.18 | 0.02 | 78 | 1019.9 |
| 20260502070100 | 74 | 89 | 4.3 | 11.3 | 0.00 | 0.18 | 0.02 | 77 | 1019.8 |
| 20260502064533 | 74 | 127 | 7.0 | 13.0 | 0.00 | 0.18 | 0.02 | 77 | 1019.8 |
| 20260502063124 | 74 | 97 | 5.2 | 11.3 | 0.00 | 0.18 | 0.02 | 76 | 1019.7 |
| 20260502061519 | 75 | 103 | 5.2 | 13.0 | 0.00 | 0.18 | 0.02 | 76 | 1019.9 |
| 20260502060025 | 75 | 133 | 5.2 | 10.4 | 0.00 | 0.18 | 0.02 | 75 | 1020.0 |
| 20260502054545 | 74 | 110 | 3.5 | 13.0 | 0.00 | 0.18 | 0.02 | 77 | 1019.8 |
| 20260502053009 | 75 | 139 | 4.3 | 10.4 | 0.00 | 0.18 | 0.02 | 77 | 1019.9 |
| 20260502051511 | 76 | 116 | 6.1 | 16.5 | 0.00 | 0.18 | 0.02 | 75 | 1019.9 |